Chehalis, WA
on Monday, January 28, 2013

Monday
Previous Day Next Day
Daily Summary
 ActualAverage (KOLM)Record (KOLM)
Temperature
Mean Temperature °F 40°F  
Max Temperature 44°F 47°F 60°F (1976)
Min Temperature 37°F 34°F -4°F (1972)
Degree Days
Heating Degree Days 24 25  
Month to date heating degree days 710  
Since 1 July heating degree days 2980  
Cooling Degree Days 0 0  
Month to date cooling degree days 0  
Year to date cooling degree days 0  
Moisture
Dew Point 39°F   
Average Humidity 95    
Maximum Humidity 100    
Minimum Humidity 87    
Precipitation
Precipitation 0.25 in 0.23 in 2.25 in (1999)
Month to date precipitation 7.14  
Year to date precipitation 7.14  
Wind
Wind Speed 4 mph   
Max Wind Speed 7 mph   
Max Gust Speed mph   
Visibility 8 miles   
Events Rain   

Key: T is trace of precipitation, MM is missing value
Source: NWS Daily Summary
Time(PST)TemperatureDew PointHumidity Pressure Visibility Wind DirectionWind SpeedGust SpeedPrecipitationEvents Conditions
12:15 AM 39.2°F 37.4°F 93% 30.06 in 8.0 miles SSW 4.6 mph - N/A   Overcast
12:55 AM 39.2°F 37.4°F 93% 30.06 in 10.0 miles South 5.8 mph - N/A   Overcast
1:15 AM 39.2°F 37.4°F 93% 30.07 in 10.0 miles SW 3.5 mph - N/A   Overcast
1:35 AM 37.4°F 37.4°F 100% 30.07 in 10.0 miles SSW 5.8 mph - N/A   Mostly Cloudy
1:55 AM 37.4°F 35.6°F 93% 30.08 in 10.0 miles SSW 4.6 mph - N/A   Overcast
2:15 AM 37.4°F 35.6°F 93% 30.08 in 10.0 miles Calm Calm - N/A   Mostly Cloudy
2:35 AM 37.4°F 37.4°F 100% 30.08 in 10.0 miles Calm Calm - N/A   Overcast
2:55 AM 37.4°F 37.4°F 100% 30.08 in 4.0 miles South 4.6 mph - N/A   Overcast
3:15 AM 37.4°F 37.4°F 100% 30.09 in 6.0 miles SW 5.8 mph - N/A   Overcast
3:35 AM 39.2°F 37.4°F 93% 30.09 in 10.0 miles South 4.6 mph - N/A   Overcast
3:55 AM 39.2°F 37.4°F 93% 30.08 in 10.0 miles SW 4.6 mph - 0.01 in   Overcast
4:15 AM 39.2°F 37.4°F 93% 30.10 in 10.0 miles SSW 3.5 mph - N/A   Overcast
4:35 AM 39.2°F 37.4°F 93% 30.10 in 10.0 miles South 3.5 mph - N/A   Overcast
4:55 AM 39.2°F 39.2°F 100% 30.10 in 7.0 miles SSE 3.5 mph - N/A   Overcast
5:15 AM 41.0°F 39.2°F 93% 30.10 in 8.0 miles South 4.6 mph - N/A   Overcast
5:35 AM 39.2°F 39.2°F 100% 30.10 in 6.0 miles SSW 4.6 mph - N/A   Mostly Cloudy
5:55 AM 39.2°F 37.4°F 93% 30.10 in 7.0 miles SSW 4.6 mph - N/A   Mostly Cloudy
6:15 AM 39.2°F 37.4°F 93% 30.10 in 7.0 miles SW 3.5 mph - N/A   Overcast
6:35 AM 39.2°F 37.4°F 93% 30.11 in 10.0 miles SW 3.5 mph - N/A   Overcast
6:55 AM 39.2°F 37.4°F 93% 30.11 in 10.0 miles SW 3.5 mph - N/A   Overcast
7:15 AM 39.2°F 37.4°F 93% 30.12 in 10.0 miles SW 4.6 mph - N/A   Overcast
7:35 AM 39.2°F 37.4°F 93% 30.12 in 10.0 miles SSW 3.5 mph - N/A   Overcast
7:55 AM 39.2°F 37.4°F 93% 30.12 in 10.0 miles SSW 4.6 mph - N/A   Overcast
8:15 AM 39.2°F 37.4°F 93% 30.12 in 10.0 miles SSW 3.5 mph - N/A   Overcast
8:35 AM 41.0°F 37.4°F 87% 30.13 in 10.0 miles SW 3.5 mph - N/A   Overcast
8:55 AM 41.0°F 37.4°F 87% 30.13 in 10.0 miles SW 4.6 mph - N/A   Overcast
9:15 AM 41.0°F 39.2°F 93% 30.12 in 10.0 miles SW 5.8 mph - N/A   Scattered Clouds
9:35 AM 41.0°F 39.2°F 93% 30.13 in 6.0 miles SSW 5.8 mph - N/A   Scattered Clouds
9:55 AM 41.0°F 39.2°F 93% 30.13 in 5.0 miles SW 4.6 mph - N/A   Partly Cloudy
10:15 AM 41.0°F 39.2°F 93% 30.13 in 8.0 miles SW 6.9 mph - N/A   Partly Cloudy
10:35 AM 41.0°F 39.2°F 93% 30.13 in 10.0 miles SSW 5.8 mph - N/A   Clear
10:55 AM 41.0°F 39.2°F 93% 30.13 in 10.0 miles SSW 5.8 mph - N/A   Mostly Cloudy
11:15 AM 41.0°F 39.2°F 93% 30.13 in 9.0 miles SSW 5.8 mph - N/A   Scattered Clouds
11:35 AM 41.0°F 39.2°F 93% 30.13 in 4.0 miles SSW 4.6 mph - N/A Rain Light Rain
11:55 AM 42.8°F 41.0°F 93% 30.13 in 3.0 miles SSW 3.5 mph - 0.01 in Rain Light Rain
12:15 PM 42.8°F 41.0°F 93% 30.13 in 3.0 miles South 4.6 mph - 0.01 in Rain Light Rain
12:35 PM 42.8°F 41.0°F 93% 30.12 in 3.0 miles South 3.5 mph - 0.03 in Rain Light Rain
12:55 PM 42.8°F 41.0°F 93% 30.12 in 5.0 miles South 5.8 mph - 0.04 in Rain Light Rain
1:15 PM 42.8°F 41.0°F 93% 30.11 in 5.0 miles South 5.8 mph - 0.01 in Rain Light Rain
1:35 PM 42.8°F 41.0°F 93% 30.11 in 5.0 miles South 5.8 mph - 0.02 in Rain Light Rain
2:15 PM 42.8°F 41.0°F 93% 30.10 in 5.0 miles South 5.8 mph - N/A Rain Light Rain
2:35 PM 42.8°F 41.0°F 93% 30.11 in 5.0 miles South 5.8 mph - 0.01 in Rain Light Rain
2:55 PM 42.8°F 41.0°F 93% 30.10 in 9.0 miles South 6.9 mph - 0.01 in Rain Light Rain
3:15 PM 44.6°F 41.0°F 87% 30.10 in 3.0 miles SSW 3.5 mph - N/A Rain Light Rain
3:35 PM 42.8°F 41.0°F 93% 30.11 in 4.0 miles SSW 4.6 mph - N/A Rain Light Rain
3:55 PM 42.8°F 41.0°F 93% 30.11 in 5.0 miles SSW 4.6 mph - N/A Rain Light Rain
4:15 PM 42.8°F 41.0°F 93% 30.11 in 10.0 miles SW 3.5 mph - N/A Rain Light Rain
4:35 PM 42.8°F 41.0°F 93% 30.11 in 9.0 miles SSW 3.5 mph - N/A Rain Light Rain
4:55 PM 42.8°F 41.0°F 93% 30.11 in 9.0 miles SW 3.5 mph - 0.02 in Rain Light Rain
5:15 PM 41.0°F 41.0°F 100% 30.11 in 7.0 miles SSW 4.6 mph - N/A Rain Light Rain
5:35 PM 41.0°F 41.0°F 100% 30.11 in 6.0 miles SSW 4.6 mph - 0.02 in   Overcast
5:55 PM 41.0°F 41.0°F 100% 30.12 in 8.0 miles Calm Calm - 0.03 in Rain Light Rain
6:15 PM 41.0°F 41.0°F 100% 30.12 in 9.0 miles SSW 3.5 mph - 0.01 in Rain Light Rain
6:35 PM 41.0°F 41.0°F 100% 30.13 in 7.0 miles Calm Calm - 0.02 in Rain Light Rain
6:55 PM 41.0°F 41.0°F 100% 30.12 in 8.0 miles South 3.5 mph - 0.03 in Rain Light Rain
7:15 PM 41.0°F 41.0°F 100% 30.13 in 8.0 miles SSW 4.6 mph - N/A Rain Light Rain
7:35 PM 41.0°F 41.0°F 100% 30.13 in 7.0 miles South 3.5 mph - 0.02 in Rain Light Rain
7:55 PM 41.0°F 41.0°F 100% 30.13 in 7.0 miles SSW 5.8 mph - 0.03 in Rain Light Rain
8:15 PM 41.0°F 41.0°F 100% 30.13 in 8.0 miles SSW 3.5 mph - N/A Rain Light Rain
8:35 PM 41.0°F 41.0°F 100% 30.13 in 8.0 miles SSW 4.6 mph - 0.01 in Rain Light Rain
8:55 PM 41.0°F 41.0°F 100% 30.14 in 9.0 miles SSW 5.8 mph - 0.01 in Rain Light Rain
9:15 PM 41.0°F 41.0°F 100% 30.14 in 5.0 miles SSW 5.8 mph - 0.01 in Rain Light Rain
9:35 PM 41.0°F 41.0°F 100% 30.15 in 9.0 miles South 3.5 mph - 0.01 in Rain Light Rain
9:55 PM 41.0°F 41.0°F 100% 30.14 in 9.0 miles South 5.8 mph - 0.02 in Rain Light Rain
10:15 PM 41.0°F 41.0°F 100% 30.14 in 10.0 miles South 5.8 mph - N/A   Overcast
10:35 PM 42.8°F 41.0°F 93% 30.16 in 10.0 miles SSW 4.6 mph - N/A   Overcast
10:55 PM 42.8°F 41.0°F 93% 30.16 in 9.0 miles South 4.6 mph - N/A   Overcast
11:15 PM 42.8°F 41.0°F 93% 30.16 in 5.0 miles SSW 4.6 mph - N/A Rain Light Rain
11:35 PM 42.8°F 41.0°F 93% 30.17 in 4.0 miles South 3.5 mph - 0.01 in   Overcast
11:55 PM 42.8°F 41.0°F 93% 30.17 in 5.0 miles South 4.6 mph - 0.02 in Rain Light Rain
Moon Phase
Jan. 28 Feb. 03 Feb. 10 Feb. 17 Feb. 25
Sunrise:07:40 AM (PST) Moon Rise:07:21 PM (PST)1/28
Sunset:05:10 PM (PST) Moon Set:07:59 AM (PST)1/28

Copyright © 2014 The Weather Underground, Inc.